Voltar ao catálogo

DELTA 1 DEB

AtivoSSO
NORAD 3417·DEBRIS·🇺🇸 United States

Lançado Aug 16, 1968 de Vandenberg Space Force Base

Loading…

Próximas Passagens (próximas 24 horas)

TLE

AtualizadoSource: Space-Track

Época: Sep 14, 2026, 08:23 UTC

1 03417U 68069D   26257.34959126 -.00000040  00000-0  47442-4 0  9995
2 03417 102.1915 201.8984 0065769 252.4678 262.1369 12.39784191933880

Acompanhe DELTA 1 DEB em tempo real com AllMySat

Download on the App Store